Clarksburg, WV

4:17 AM EDT on July 21, 2017 (GMT -0400)
Benedum

Weather History for KCKB - February, 2013

Change the Weather History Date:

Sunday, February 17, 2013

  Actual Average Record
Temperature  
Mean Temperature 18 °F 34 °F  
Max Temperature 21 °F 43 °F 71 °F (1954)
Min Temperature 14 °F 25 °F -5 °F (1930)
Degree Days  
Heating Degree Days 48 31  
Month to date heating degree days 545  
Since 1 July heating degree days 3637  
Cooling Degree Days 0 0  
Month to date cooling degree days 0  
Year to date cooling degree days 0  
Moisture  
Dew Point 10 °F    
Average Humidity 69    
Maximum Humidity 86    
Minimum Humidity 48    
Precipitation  
Precipitation 0.02 in 0.11 in 0.65 in (1952)
Month to date precipitation 1.93  
Year to date precipitation 5.38  
Sea Level Pressure  
Sea Level Pressure 30.07 in    
Wind  
Wind Speed 11 mph (WNW)    
Max Wind Speed 17 mph    
Max Gust Speed 24 mph    
Visibility 6 miles    
Events Snow    
T = Trace of Precipitation, MM = Missing Value Source: NWS Daily Summary

Daily Weather History Graph

Daily Weather History Graph

Search for Another Location

Airport or City:

Trip Planner

Search our weather history database for the weather conditions in past years. The results will help you decide how hot, cold, wet, or windy it might be!

Date:

Astronomy

Feb. 17, 2013 Rise Set
Actual Time 7:09 AM EST 6:00 PM EST
Civil Twilight 6:42 AM EST 6:27 PM EST
Nautical Twilight 6:11 AM EST 6:59 PM EST
Astronomical Twilight 5:40 AM EST 7:30 PM EST
Moon 11:04 AM EST (2/17) 12:51 AM EST (2/17)
Length of Visible Light 11h 45m
Length of Day
10h 50m
Waxing Crescent, 49% of the Moon is Illuminated
Feb 17
Waxing Crescent
Feb 17
First Quarter
Feb 25
Full
Mar 4
Last Quarter
Mar 11
New

Hourly Weather History & Observations

Time (EST) Temp. Windchill Dew Point Humidity Pressure Visibility Wind Dir Wind Speed Gust Speed Precip Events Conditions
12:22 AM 21.2 °F 8.9 °F 17.6 °F 86% 29.92 in 2.0 mi WNW 12.7 mph - 0.00 in Snow Light Snow
12:30 AM 21.2 °F 10.1 °F 17.6 °F 86% 29.92 in 5.0 mi WNW 10.4 mph - 0.00 in Snow Light Snow
12:53 AM 21.9 °F 11.7 °F 15.1 °F 75% 29.95 in 9.0 mi West 9.2 mph - 0.00 in   Overcast
1:28 AM 21.2 °F 9.5 °F 15.8 °F 80% 29.93 in 2.5 mi WNW 11.5 mph - 0.00 in Snow Light Snow
1:41 AM 21.2 °F 11.7 °F 15.8 °F 80% 29.93 in 1.8 mi WNW 8.1 mph - 0.00 in Snow Light Snow
1:49 AM 21.2 °F 13.6 °F 17.6 °F 86% 29.93 in 2.0 mi WNW 5.8 mph - 0.00 in Snow Light Snow
1:51 AM 21.2 °F 11.7 °F 17.6 °F 86% 29.93 in 1.8 mi WNW 8.1 mph - 0.00 in Snow Light Snow
1:53 AM 21.0 °F 9.9 °F 17.1 °F 85% 29.96 in 1.5 mi WNW 10.4 mph - 0.00 in Snow Light Snow
1:55 AM 21.2 °F 10.1 °F 17.6 °F 86% 29.94 in 1.2 mi WNW 10.4 mph - 0.01 in Snow Light Snow
2:04 AM 19.4 °F 6.0 °F 15.8 °F 86% 29.94 in 0.5 mi WNW 13.8 mph 21.9 mph 0.01 in Snow Snow
2:45 AM 19.4 °F 6.6 °F 15.8 °F 86% 29.94 in 1.0 mi West 12.7 mph - 0.02 in Snow Light Snow
2:48 AM 19.4 °F 5.5 °F 14.0 °F 80% 29.94 in 2.0 mi West 15.0 mph 18.4 mph 0.02 in Snow Light Snow
2:53 AM 19.0 °F 6.8 °F 12.9 °F 77% 29.98 in 5.0 mi WNW 11.5 mph 18.4 mph 0.02 in Snow Light Snow
3:01 AM 19.4 °F 6.6 °F 12.2 °F 74% 29.94 in 8.0 mi West 12.7 mph - 0.00 in   Overcast
3:53 AM 19.0 °F 7.5 °F 10.9 °F 71% 29.98 in 10.0 mi West 10.4 mph - 0.00 in   Overcast
4:53 AM 17.1 °F 2.5 °F 8.1 °F 68% 30.01 in 10.0 mi WNW 15.0 mph 21.9 mph 0.00 in   Overcast
5:53 AM 16.0 °F 3.6 °F 5.0 °F 62% 30.03 in 10.0 mi WNW 10.4 mph - N/A   Mostly Cloudy
6:53 AM 15.1 °F 2.5 °F 3.9 °F 61% 30.05 in 10.0 mi West 10.4 mph 19.6 mph N/A   Overcast
7:53 AM 14.0 °F 1.2 °F 3.9 °F 64% 30.07 in 10.0 mi West 10.4 mph - N/A   Overcast
8:53 AM 15.1 °F 2.5 °F 5.0 °F 64% 30.10 in 10.0 mi West 10.4 mph 16.1 mph N/A   Mostly Cloudy
9:42 AM 15.8 °F 2.1 °F 6.8 °F 68% 30.08 in 10.0 mi WNW 12.7 mph - N/A   Overcast
9:53 AM 16.0 °F 3.6 °F 7.0 °F 68% 30.12 in 7.0 mi West 10.4 mph 19.6 mph 0.00 in Snow Light Snow
10:53 AM 18.0 °F 6.9 °F 8.1 °F 65% 30.14 in 7.0 mi West 9.2 mph 18.4 mph 0.00 in Snow Light Snow
11:53 AM 19.9 °F 6.2 °F 8.1 °F 60% 30.14 in 10.0 mi WNW 15.0 mph 24.2 mph 0.00 in   Overcast
12:53 PM 19.0 °F 9.0 °F 6.1 °F 57% 30.14 in 10.0 mi West 8.1 mph 17.3 mph N/A   Overcast
1:05 PM 19.4 °F 7.9 °F 8.6 °F 63% 30.10 in 2.5 mi West 10.4 mph 20.7 mph 0.00 in Snow Light Snow
1:16 PM 19.4 °F 6.0 °F 8.6 °F 63% 30.09 in 9.0 mi West 13.8 mph 19.6 mph 0.00 in   Overcast
1:53 PM 19.9 °F 7.3 °F 9.0 °F 62% 30.13 in 5.0 mi NW 12.7 mph 20.7 mph 0.00 in Snow Light Snow
2:01 PM 19.4 °F 5.5 °F 8.6 °F 63% 30.10 in 2.0 mi WNW 15.0 mph 20.7 mph 0.00 in Snow Light Snow
2:04 PM 19.4 °F 4.5 °F 10.4 °F 68% 30.10 in 0.8 mi WNW 17.3 mph 23.0 mph 0.00 in Snow Light Snow
2:21 PM 19.4 °F 7.9 °F 10.4 °F 68% 30.10 in 9.0 mi WNW 10.4 mph - 0.00 in Snow Light Snow
2:33 PM 19.4 °F 7.2 °F 12.2 °F 74% 30.11 in 1.8 mi West 11.5 mph 21.9 mph 0.00 in Snow Light Snow
2:40 PM 19.4 °F 4.5 °F 10.4 °F 68% 30.11 in 2.0 mi West 17.3 mph 21.9 mph 0.00 in Snow Light Snow
2:48 PM 19.4 °F 9.5 °F 10.4 °F 68% 30.11 in 4.0 mi West 8.1 mph - 0.00 in Snow Light Snow
2:53 PM 19.9 °F 8.6 °F 10.9 °F 68% 30.15 in 5.0 mi West 10.4 mph - 0.00 in Snow Light Snow
3:53 PM 21.0 °F 9.3 °F 9.0 °F 60% 30.15 in 10.0 mi West 11.5 mph - 0.00 in   Overcast
4:53 PM 21.0 °F 8.1 °F 6.1 °F 53% 30.17 in 10.0 mi West 13.8 mph 20.7 mph 0.00 in   Mostly Cloudy
5:39 PM 19.4 °F 8.6 °F 10.4 °F 68% 30.15 in 4.0 mi NW 9.2 mph - 0.00 in Snow Light Snow
5:50 PM 19.4 °F 12.8 °F 10.4 °F 68% 30.15 in 9.0 mi WNW 4.6 mph - 0.00 in   Mostly Cloudy
5:53 PM 19.9 °F 11.1 °F 10.9 °F 68% 30.20 in 9.0 mi WNW 6.9 mph - 0.00 in   Mostly Cloudy
6:53 PM 21.0 °F 11.4 °F 8.1 °F 57% 30.22 in 10.0 mi WNW 8.1 mph - N/A   Overcast
7:53 PM 21.0 °F 9.9 °F 3.9 °F 48% 30.24 in 10.0 mi West 10.4 mph - N/A   Overcast
8:53 PM 19.9 °F 11.1 °F 5.0 °F 52% 30.26 in 10.0 mi NW 6.9 mph - N/A   Overcast
9:53 PM 19.0 °F 12.3 °F 3.0 °F 50% 30.27 in 10.0 mi West 4.6 mph - N/A   Clear
10:53 PM 18.0 °F 12.7 °F 3.9 °F 54% 30.28 in 10.0 mi SW 3.5 mph - N/A   Clear